Regional Weather Roundup
Issued by NWS

Home | Current Version | Previous Version | Graphics & Text | Print | Product List | Glossary On
Versions: 1 2 3 4 5 6 7 8 9 10 11 12 13 14 15 16 17 18 19 20 21 22 23 24 25 26 27 28 29 30 31 32 33 34 35 36 37 38 39 40 41 42 43 44 45 46 47 48 49 50
000
ASUS45 KTFX 010610
RWRMT
MONTANA REGIONAL WEATHER ROUNDUP
NATIONAL WEATHER SERVICE GREAT FALLS MT
1200 AM MDT SAT AUG 01 2015

NOTE: "FAIR" INDICATES FEW OR NO CLOUDS BELOW 12000 FEET WITH NO
SIGNIFICANT WEATHER AND/OR OBSTRUCTIONS TO VISIBILITY.

MTZ001>007-043-010700-
WEST OF THE DIVIDE

CITY           SKY/WX    TMP DP  RH WIND       PRES   REMARKS
KALISPELL      CLEAR     56  39  53 CALM      30.01S
MISSOULA       CLEAR     69  35  28 N3        30.07S
BUTTE          CLEAR     59  36  42 CALM      30.27S
MULLAN PASS    CLEAR     73  20  13 SW7       30.26F
DEER LODGE       N/A     57  37  47 CALM      30.23S
EUREKA           N/A     68  34  28 S3        29.99S
HAMILTON         N/A     66  36  32 SW8       30.11S
LIBBY            N/A     66  36  32 CALM      30.01R
PLAINS           N/A     65  37  35 CALM      30.02S
RONAN            N/A     61  42  49 CALM      30.08S
$$

MTZ008-052>055-010700-
SOUTHWEST MONTANA

CITY           SKY/WX    TMP DP  RH WIND       PRES   REMARKS
BOZEMAN        CLEAR     61  43  51 SE8       30.18S
DILLON         CLEAR     63  35  35 S7        30.23R
W YELLOWSTONE  CLEAR     46  41  81 CALM      30.36S
THREE FORKS      N/A     59  59 100 CALM      30.14S
TWIN BRIDGES     N/A     54  41  61 SE3       30.18S
$$

MTZ009-010-012-014-046-048-049-054-010700-
EAST SLOPES AND CENTRAL MONTANA

CITY           SKY/WX    TMP DP  RH WIND       PRES   REMARKS
CUT BANK       CLEAR     60  35  39 W12       30.05S
GREAT FALLS    CLEAR     62  40  44 S12       30.05F
MALMSTROM AFB  CLEAR     70  37  29 S5        30.04F
HELENA         CLEAR     70  35  27 W5        30.12R
$$

MTZ011-013-016-021-045-047-050-051-010700-
NORTH CENTRAL MONTANA

CITY           SKY/WX    TMP DP  RH WIND       PRES   REMARKS
HAVRE          CLEAR     67  43  41 VRB5      29.98F
LEWISTOWN      CLEAR     60  44  55 E8        30.13F
CHINOOK          N/A     63  52  67 CALM      29.99S
FORT BENTON      N/A     70  39  32 CALM      30.01S
$$

MTZ017>020-022>027-061-062-010700-
NORTHEAST MONTANA

CITY           SKY/WX    TMP DP  RH WIND       PRES   REMARKS
GLASGOW        CLEAR     68  47  46 NE8       29.99S
JORDAN           N/A     64  45  49 CALM      30.03S
SIDNEY         CLEAR    N/A N/A N/A N6        29.99F
WOLF POINT     CLEAR     67  49  52 NE8       29.99S
MALTA            N/A     59  51  74 CALM      29.96F
PLENTYWOOD       N/A     64  50  59 NE3       30.05S
POPLAR           N/A     64  54  68 NE10      30.00S
$$

MTZ028>42-056>058-010700-
SOUTHCENTRAL AND SOUTHEAST MONTANA

CITY           SKY/WX    TMP DP  RH WIND       PRES   REMARKS
BAKER          CLEAR     70  46  42 S9        30.03F
BILLINGS       PTCLDY    79  37  22 N5        30.12S
LIVINGSTON     CLEAR     55  36  48 S3        30.19S
MILES CITY     CLEAR     70  42  36 NW6       30.01S
FORSYTH          N/A     75  39  27 CALM      30.03S
LAUREL           N/A     71  33  24 CALM      30.10S
ROUNDUP          N/A     68  38  33 CALM      30.01F
$$

REGIONAL REPORTS...DAKOTAS

CITY           SKY/WX    TMP DP  RH WIND       PRES   REMARKS
WILLISTON      CLEAR     66  52  60 N6        30.03S
MINOT          CLEAR     62  52  69 SW6       30.01S
DICKINSON      CLEAR     59  50  72 E9        30.03S
CROSBY         FAIR      54  54 100 SW3       30.05S
BISMARCK       MOCLDY    63  58  83 NE3       30.04S
GRAND FORKS    CLEAR     57  52  83 W5        29.97S
FARGO          CLEAR     62  56  80 SW5       30.00R
BUFFALO SD       N/A     68  47  46 SE7       30.01S
RAPID CITY     CLEAR     68  54  60 SW5       30.12F
$$

REGIONAL REPORTS...WYOMING/IDAHO/WASHINGTON

CITY           SKY/WX    TMP DP  RH WIND       PRES   REMARKS
GILLETTE         N/A     71  49  45 S12       30.14S
SHERIDAN       PTCLDY    64  46  52 NE6       30.12S
BUFFALO WY     CLEAR     68  38  33 W9        30.20F
CODY           PTCLDY    72  27  18 NW6       30.23S
YELLOWSTONE LA   N/A     48  33  56 W3        30.47R
IDAHO FALLS    CLEAR     58  47  66 NE5       30.19S
SALMON         CLEAR     61  41  48 CALM      30.15S
BOISE          CLEAR     78  38  23 SE6       30.00F
SPOKANE        PTCLDY    77  21  12 SW9       29.97S
$$

REGIONAL REPORTS...ALBERTA

CITY           SKY/WX    TMP DP  RH WIND       PRES   REMARKS
EDMONTON       CLEAR     59  52  77 N7        29.98S
CALGARY        PTCLDY    66  45  45 N2        30.01R
LETHBRIDGE     CLEAR     61  43  51 NW5       29.97S
MEDICINE HAT   CLEAR     64  46  52 CALM      29.93F
WATERTON GATE    N/A     52  41  66 SW6         N/A
MILK RIVER       N/A     61  41  48 NW12        N/A
$$

REGIONAL REPORTS...SASKATCHEWAN

CITY           SKY/WX    TMP DP  RH WIND       PRES   REMARKS
SWIFT CURRENT  CLEAR     59  52  77 SE10      30.01F
REGINA         CLEAR     54  50  87 SE3       30.03S
SASKATOON      PTCLDY    63  54  72 S7        29.95F
CYPRESS HILLS    N/A     64  36  34 SE6         N/A
VAL MARIE        N/A     63  54  72 NE5         N/A
ROCKGLEN         N/A     63  48  59 E8          N/A
ASSINIBOIA       N/A     59  55  88 N5          N/A
$$


USA.gov is the U.S. government's official web portal to all federal, state and local government web resources and services.